Погода в Малых Кибечах

Россия / Чувашская Республика     55°37′25″N   47°37′55″E
темп.,
°C
ветер,
м/с
пор.,
м/с
влажн.,
%
обл.,
%
осадки,
мм/ч
давл.,
гПа
погр.,
м
10 мая, пн
пн1000:00+13ю3385100 0.0 101339
03:00+12ссз2289100 0.2 101430
06:00+13св3786100 0.1 1016206
09:00+17в4672100 0.1 1017435
12:00+21юв2354100 0.0 10181070
15:00+22в225099 0.1 10191528
18:00+18с6978100 0.6 1021246
21:00+14ссв51094100 1.8 1023274
11 мая, вт
вт1100:00+12ссв51098100 0.2 1023240
03:00+12ссв5997100 0.2 1024204
06:00+13св489166 0.0 1024218
09:00+18всв5668100 0.0 1025510
12:00+22в5652100 0.0 1026982
15:00+23в4547100 0.0 10261370
18:00+20всв3462100 0.0 102665
21:00+17в2264100 0.0 102718
12 мая, ср
ср1200:00+15всв336898 0.0 102732
03:00+14всв3368100 0.0 102729
06:00+15в387395 0.0 1027223
09:00+20вюв4657100 0.0 1027525
12:00+23юв584340 0.0 10272136
15:00+24вюв574287 0.0 10272519
18:00+19ю236375 0.0 102761
21:00+16вюв116599 0.0 102711
13 мая, чт
чт1300:00+15в2273100 0.0 102711
03:00+14вюв337218 0.0 102730
06:00+16вюв376840 0.0 1027199
09:00+20юв585142 0.0 1026723
12:00+23юв794149 0.0 10261438
15:00+23юв5741100 0.0 10251493
18:00+21вюв496196 0.0 1024229
21:00+18юв41166100 0.0 1024253
14 мая, пт
пт1400:00+17юв31065100 0.0 1024219
03:00+16ююв386676 0.0 1024160
06:00+16ююв497069 0.0 1024239
09:00+21ююв585185 0.0 1023517
12:00+24ююв684280 0.0 10221019
15:00+24ююв78435 0.0 10221013
18:00+22ююв595877 0.0 1021276
21:00+18ююв3869100 0.0 1020113